www.pogodaiklimat.ru

Погода и климат >> Архив погоды >> Аргентина >> Сан-Хуан


ПОГОДА в Сан-Хуане

  • Прогноз погоды в Сан-Хуане
  • Монитор погоды в Сан-Хуане

АРХИВ ПОГОДЫ в Сан-Хуане

Время (UTC), дата Ветер
(напр.,м/с)
 
Видим.   Явления Облачность Т
(С)
Тd
(С)
f
(%)
Тe
(С)
Тes
(С)
Комфортность P
(гПа)
Po
(гПа)
Тmin
(С)
Tmax
(С)
R
(мм)
R24
(мм)
S
(см)
03 13.06 ЮЗ 3 15 км ясно +8.6 +2.1 64 +6 +6 1013.3 943.4
06 13.06 Ю 2 15 км ясно +4.6 +1.1 78 +2 +2 1012.5 942.6
09 13.06 Ю 3 100 м туман ?/? +3.6 +3.1 97 -1 -1 1012.5 942.5
12 13.06 ЮЗ 2 100 м туман ?/? +4.4 +3.9 97 +2 +2 1015.1 944.2 +2.1 +9.3 0.0
15 13.06 Ю 3 10 км 10/10 1050 м
[Sc]
+9.6 +6.7 82 +7 +7 1016.2 945.8
18 13.06 ЮВ 5 15 км 3/3 1200 м
[Sc]
+12.9 +6.2 64 +11 +13 1013.8 943.4
21 13.06 ЮВ 3 15 км ясно +14.0 +5.9 58 +13 +13 1014.8 944.5
00 14.06 З 4 15 км ясно +7.9 +3.6 74 +5 +5 1019.3 948.0 +4.4 +14.7
03 14.06 штиль 0 15 км ясно +4.8 +1.9 81 +4 +4 1020.1 949.0
06 14.06 ЮЗ 2 15 км ясно +1.6 +0.6 93 -1 -1 1021.2 950.0
09 14.06 СЗ 2 15 км 5/5 600 м
[St]
+4.0 +0.2 76 +1 +1 1020.4 949.7
12 14.06 ЮЗ 2 5000 м дым ясно +1.5 -0.4 87 -1 -1 1021.9 950.1 +0.5 +7.9
15 14.06 Ю 4 15 км 1/1 1500 м
[Cu hum]
+11.2 +3.3 58 +9 +13 1021.0 950.0
18 14.06 Ю 4 15 км 3/3 1200 м
[Cu hum]
+13.0 0.0 41 +12 +14 1018.1 947.2
21 14.06 Ю 5 15 км 5/0
[Ac As]
+12.8 -4.0 31 +11 +11 1017.2 946.6
00 15.06 Ю 5 15 км 10/6 1050 м
[Sc Ac As]
+8.3 +3.1 70 +5 +5 1021.7 949.8 +1.5 +13.8
03 15.06 ЮВ 4 15 км 10/10 1050 м
[Sc]
+8.0 +3.0 71 +5 +5 1021.3 950.6
06 15.06 Ю 4 15 км 10/10 1050 м
[Sc]
+7.8 -0.1 57 +5 +5 1021.3 950.9
09 15.06 Ю 6 15 км 10/10 1050 м
[Sc]
+7.6 -1.6 52 +4 +4 1022.0 951.4
12 15.06 Ю 8 15 км слаб. морось 10/8 1050 м
[Sc Ac As]
+6.6 +1.8 71 +2 +2 1025.9 954.5 +6.5 +8.5
15 15.06 Ю 9 15 км {морось} 8/4 1050 м
[Cu Sc Ac As]
+8.6 +0.4 56 +4 +4 1027.5 956.2
18 15.06 Ю 7 15 км {морось} 8/5 1050 м
[Cu hum Ac As]
+9.4 -1.6 46 +6 +6 1026.0 954.8 0.0
21 15.06 Ю 6 15 км 9/9 1200 м
[Sc]
+9.0 -3.0 43 +6 +6 1026.4 955.0
00 16.06 Ю 4 15 км 8/8 1000 м
[Sc]
+6.4 +4.1 85 +3 +3 1030.1 958.1 +6.0 +10.5
03 16.06 Ю 3 15 км 5/0
[Ac As]
+2.4 -3.3 66 -1 -1 1031.7 959.4
06 16.06 Ю 4 15 км 10/0
[Ac As]
+4.6 -0.6 69 +1 +1 1031.0 959.0
09 16.06 Ю 2 15 км 10/8 750 м
[St Ac As]
+4.4 -0.5 70 +2 +2 1030.1 958.2
12 16.06 штиль 0 15 км 10/5 600 м
[St Ac As]
+3.6 -0.3 76 +3 +3 1031.4 959.0 +1.4 +6.4 0.0
15 16.06 Ю 1 15 км 1/0
[Ac und]
+7.2 +0.3 62 +7 +13 1031.2 958.6
18 16.06 штиль 0 15 км 6/6 750 м
[Cu hum]
+9.7 -3.3 40 +10 +13 1027.5 955.8
21 16.06 ЮВ 3 15 км 6/6 900 м
[Cu hum]
+10.0 -4.6 35 +8 +9 1025.6 954.1
00 17.06 штиль 0 15 км 8/8 1050 м
[Sc]
+7.0 -1.8 53 +7 +7 1027.6 955.4 +3.5 +11.5
03 17.06 Ю 2 15 км 9/9 1050 м
[Sc]
+6.2 -1.6 57 +4 +4 1027.2 955.4
06 17.06 штиль 0 15 км 6/6 1050 м
[Sc]
+3.8 -0.9 71 +3 +3 1025.2 953.6
09 17.06 штиль 0 15 км 4/0
[Ac trans]
+1.6 -1.7 79 +1 +1 1023.6 951.8
12 17.06 штиль 0 5000 м дым ясно -1.5 -3.0 89 -3 -3 1024.1 951.6 -2.2 +7.0
15 17.06 Ю 3 15 км 1/1 1200 м
[Cu hum]
+7.9 -1.5 51 +6 +11 1021.9 950.6
18 17.06 ЮВ 3 15 км 6/1 1200 м
[Cu hum Ac As Cs]
+10.4 -2.9 39 +9 +12 1017.9 946.9
21 17.06 Ю 3 15 км 8/0
[Ac As Cs]
+9.4 -3.0 42 +8 +8 1017.9 946.5
00 18.06 З 2 15 км 3/0
[Ac As Cs]
+6.0 -1.9 57 +4 +4 1020.7 948.2 -1.5 +11.0
03 18.06 СВ 4 15 км ясно +0.4 -4.4 70 -4 -4 1020.9 949.0
06 18.06 С 3 15 км ясно +2.0 -3.1 69 -2 -2 1021.0 949.6
09 18.06 С 3 15 км ясно +0.2 -4.7 70 -4 -4 1021.1 949.3
12 18.06 С 5 15 км ясно +1.0 -5.1 64 -4 -4 1022.2 950.0 -1.5 +6.3
15 18.06 С 8 15 км ясно +10.4 -3.6 37 +7 +8 1020.9 949.3
18 18.06 С 6 15 км ясно +15.4 -7.7 20 +14 +16 1016.8 946.2
21 18.06 ЮВ 1 15 км ясно +16.7 -7.6 18 +18 +18 1018.2 947.4
00 19.06 З 3 15 км ясно +8.8 -8.5 28 +7 +7 1021.3 949.6 +1.0 +17.8
03 19.06 С 4 15 км ясно +6.0 -9.1 33 +3 +3 1021.4 950.5
06 19.06 штиль 0 15 км ясно +2.2 -6.5 53 +2 +2 1021.8 951.0
09 19.06 С 2 15 км ясно -0.8 -8.8 55 -4 -4 1022.1 951.0
12 19.06 В 2 15 км ясно -2.2 -8.6 61 -5 -5 1024.5 952.1 -2.5 +9.6
15 19.06 штиль 0 15 км ясно +11.8 -0.9 41 +12 +20 1023.5 952.6
18 19.06 С 2 15 км 3/0
[Cs]
+19.4 -9.1 14 +20 +25 1020.0 949.8
21 19.06 Ю 4 15 км 1/0
[Ci fib]
+17.8 -13.3 11 +18 +18 1019.7 948.9

 

Местоположение метеостанции Сан-Хуан (Аргентина): широта -31.40 долгота -68.41 высота над уровнем моря 598 м.

В архиве по умолчанию представлена погода в Сан-Хуане за последнюю неделю. Архивные данные за месяц целиком и за предыдущие месяцы, начиная с января 2011 года, Вы можете получить, выбрав интересующий диапазон дат из раскрывающегося списка и нажав кнопку "Ввод!".


*Определитесь, кто Вы:
робот инопланетянин человек

Внимание! Время в таблицах - всемирное. Для получения местного времени необходимо прибавить поправку, которая равна -3 ч.

Смотрите также архив погоды в соседних городах и на ближайших метеорологических станциях:

Погода в Мендосе (Аргентина) (163 км)
Погода в Сан-Мартине (Аргентина) (187 км)
Погода на Пасо Лос Либертадорес (Чили) (228 км)
Погода в Чамикале (Аргентина) (234 км)
Погода в Монте-Патрии (Чили) (255 км)
Погода в Сантьяго Эль-Тололо (Чили) (266 км)
Погода в Викунье (Чили) (267 км)
Погода в Ла-Риохе (Аргентина) (272 км)
Погода в Овалье (Чили) (280 км)
Погода в Сан-Луисе (Аргентина) (283 км)

Пояснения к столбцам:

Ветер - указаны скорость ветра в м/с - средняя за 10 мин, порывы в срок и между сроками (в фигурных скобках) и направление, откуда дует ветер: С - северный, СВ - северо-восточный, В - восточный, ЮВ - юго-восточный, Ю - южный, ЮЗ - юго-западный, З - западный, СЗ - северо-западный.
Видимость - горизонтальная дальность видимости в метрах или километрах. При видимости от 1 до 10 км при отсутствии осадков обычно наблюдается дымка, при ухудшении видимости до 1 км и менее - туман. В сухую погоду видимость может ухудшаться дымом, пылью или мглою.
Явления - указаны атмосферные явления, наблюдавшиеся в срок или в последний час перед сроком; фигурными скобками обозначены явления, наблюдавшиеся между сроками (за 1-3 часа до срока); квадратными скобками обозначены град или гололедные отложения с указанием их диаметра в мм.
Облачность - указаны через наклонную черту общая и нижняя облачность в баллах и высота нижней границы облаков в метрах; квадратными скобками обозначены формы облаков: Ci - перистые, Cs - перисто-слоистые, Cc - перисто-кучевые, Ac - высококучевые, As - высокослоистые, Sc - слоисто-кучевые, Ns - слоисто-дождевые, Cu - кучевые, Cb - кучево-дождевые. Подробнее классификацию облаков см. в Атласе облаков (PDF).
T - Температура воздуха - температура, измеренная на высоте 2 м над землей.
Td - Температура точки росы - температура, при понижении до которой содержащийся в воздухе водяной пар достигнет насыщения.
f - Относительная влажность воздуха - влажноcть воздуха, измеренная на высоте 2 м над землей.
Te - Эффективная температура - температура, которую ощущает одетый по сезону человек в тени. Характеристика душности погоды. При расчете учитывается влияние влажности воздуха и скорости ветра на теплоощущения человека.
Tes - Эффективная температура на солнце - температура, которую ощущает человек, с поправкой на солнечный нагрев. Характеристика знойности погоды. Зависит от высоты солнца над горизонтом, облачности и скорости ветра. Ночью, в пасмурную погоду, а также при ветре 12 м/с и более поправка равна нулю.
P - Атмосферное давление - приведенное к уровню моря атмосферное давление.
Po - Атмосферное давление - измеренное на уровне метеостанции атмосферное давление.
Tmin - Минимальная температура - минимум температуры воздуха на высоте 2 м над землей.
Tmax - Максимальная температура - максимум температуры воздуха на высоте 2 м над землей.
R - Количество осадков - Количество выпавших осадков за период времени, мм. При наведении курсора мыши на число - период времени, за который выпало указанное количество осадков.
R24 - Количество осадков - Количество выпавших осадков за 24 часа, мм.
S - Снежный покров - Высота снежного покрова, см. При наведении курсора мыши на число - состояние снежного покрова и степень покрытия местности в баллах.